TimeCST,TemperatureF,Dew PointF,Humidity,Sea Level PressureIn,VisibilityMPH,Wind Direction,Wind SpeedMPH,Gust SpeedMPH,PrecipitationIn,Events,Conditions,WindDirDegrees,DateUTC
12:52 AM,5.0,1.9,87,29.97,10.0,West,20.7,-,N/A,,Clear,270,2012-11-11 06:52:00
1:52 AM,5.0,1.0,84,29.96,10.0,West,20.7,-,N/A,,Clear,270,2012-11-11 07:52:00
2:52 AM,6.8,1.4,79,29.84,10.0,West,18.4,-,N/A,,Overcast,260,2012-11-11 08:52:00
3:52 AM,9.0,5.0,84,29.97,10.0,West,17.3,-,N/A,,Overcast,270,2012-11-11 09:52:00
4:52 AM,10.0,6.1,84,29.96,10.0,West,15.0,-,N/A,,Overcast,280,2012-11-11 10:52:00
5:52 AM,10.0,6.1,84,29.97,10.0,West,12.7,-,N/A,,Overcast,280,2012-11-11 11:52:00
6:52 AM,10.0,6.1,84,29.97,10.0,WNW,16.1,-,N/A,,Overcast,290,2012-11-11 12:52:00
7:52 AM,10.0,6.1,84,29.99,9.0,WNW,18.4,-,0.00,,Overcast,290,2012-11-11 13:52:00
8:45 AM,10.4,6.8,85,29.88,2.0,WNW,16.1,-,0.00,Snow,Light Snow,300,2012-11-11 14:45:00
8:52 AM,10.9,7.0,84,30.01,1.5,WNW,16.1,-,0.00,Snow,Light Snow,300,2012-11-11 14:52:00
9:52 AM,10.9,8.1,88,30.02,1.0,WNW,13.8,25.3,0.00,Snow,Light Snow,290,2012-11-11 15:52:00
10:52 AM,12.0,9.0,88,30.04,1.2,WNW,15.0,-,0.01,Snow,Light Snow,290,2012-11-11 16:52:00
11:52 AM,12.9,9.0,84,30.04,1.8,WNW,17.3,25.3,0.00,Snow,Light Snow,300,2012-11-11 17:52:00
12:02 PM,12.2,8.6,85,29.90,2.0,WNW,17.3,-,0.00,Snow,Light Snow,300,2012-11-11 18:02:00
12:31 PM,12.2,10.4,92,29.90,1.5,WNW,19.6,28.8,0.00,Snow,Light Snow,300,2012-11-11 18:31:00
12:52 PM,12.9,10.0,88,30.04,1.5,WNW,25.3,32.2,0.00,Snow,Light Snow,300,2012-11-11 18:52:00
1:10 PM,14.0,10.4,86,29.91,2.0,WNW,23.0,31.1,0.00,Snow,Light Snow,300,2012-11-11 19:10:00
1:17 PM,14.0,10.4,86,29.91,1.5,WNW,23.0,32.2,0.00,Snow,Light Snow,300,2012-11-11 19:17:00
1:30 PM,14.0,10.4,86,29.91,2.0,WNW,26.5,35.7,0.00,Snow,Light Snow,300,2012-11-11 19:30:00
1:35 PM,14.0,10.4,86,29.91,1.8,WNW,19.6,35.7,0.00,Snow,Light Snow,300,2012-11-11 19:35:00
1:52 PM,12.9,10.0,88,30.06,1.2,WNW,25.3,33.4,0.00,Snow,Light Snow,290,2012-11-11 19:52:00
2:36 PM,12.2,8.6,85,29.93,0.8,WNW,20.7,35.7,0.00,Snow,Light Snow,300,2012-11-11 20:36:00
2:41 PM,12.2,10.4,92,29.93,1.2,WNW,24.2,35.7,0.00,Snow,Light Snow,300,2012-11-11 20:41:00
2:52 PM,12.9,9.0,84,30.07,1.2,WNW,24.2,32.2,0.00,Snow,Light Snow,300,2012-11-11 20:52:00
3:43 PM,12.2,8.6,85,29.95,2.5,WNW,23.0,31.1,0.00,,Overcast,300,2012-11-11 21:43:00
3:50 PM,12.2,8.6,85,29.95,3.0,WNW,25.3,33.4,0.00,,Overcast,300,2012-11-11 21:50:00
3:52 PM,12.9,9.0,84,30.09,4.0,WNW,24.2,33.4,0.00,,Overcast,300,2012-11-11 21:52:00
4:52 PM,12.0,8.1,84,30.11,3.0,WNW,21.9,-,0.01,Snow,Light Snow,290,2012-11-11 22:52:00
4:59 PM,12.2,8.6,85,29.98,2.0,WNW,23.0,29.9,0.00,Snow,Light Snow,300,2012-11-11 22:59:00
5:16 PM,12.2,8.6,85,29.98,3.0,WNW,20.7,28.8,0.00,Snow,Light Snow,290,2012-11-11 23:16:00
5:27 PM,12.2,8.6,85,29.98,2.5,WNW,19.6,31.1,0.00,Snow,Light Snow,300,2012-11-11 23:27:00
5:37 PM,12.2,8.6,85,29.99,3.0,WNW,20.7,27.6,0.00,Snow,Light Snow,290,2012-11-11 23:37:00
5:52 PM,12.0,8.1,84,30.12,5.0,WNW,20.7,28.8,0.00,Snow,Light Snow,290,2012-11-11 23:52:00
6:52 PM,10.9,7.0,84,30.14,10.0,WNW,18.4,26.5,0.00,,Overcast,300,2012-11-12 00:52:00
7:52 PM,8.1,3.9,83,30.17,10.0,WNW,15.0,-,N/A,,Clear,300,2012-11-12 01:52:00
8:52 PM,6.8,1.4,79,30.03,10.0,WNW,13.8,-,N/A,,Clear,290,2012-11-12 02:52:00
9:52 PM,5.0,-0.0,80,30.20,10.0,West,15.0,-,N/A,,Clear,280,2012-11-12 03:52:00
10:52 PM,3.9,-0.9,80,30.20,10.0,West,6.9,-,N/A,,Clear,270,2012-11-12 04:52:00
11:52 PM,3.0,-2.0,80,30.21,10.0,WSW,6.9,-,N/A,,Clear,250,2012-11-12 05:52:00